20 | 10 | 2021

Klimadaten

Klimadaten von der Klimastation Reinstorf   ( 5 m Messungen )

Datum Zeit Temp.Außen Temp.min Temp.max Feuchte Auße Luftdruck Regen Wind Richtung Richtung Sonnenschein Zeit Temp. A ET UV Solar Taupunkt Windchill Windböen
19.10.21 00:00:00 10,5 °C 10,4 °C 10,6 °C 82,00% 1021,1 hPa 0,0 mm 4,8 km/h (1 Bft) O-SO 112 ° 0 min 0 min 0,025 mm 0,0 UV-I 0 W/m² 7,6 °C 10,4 °C 11,3 km/h (2 Bft)
19.10.21 00:15:00 10,6 °C 10,5 °C 10,6 °C 82,00% 1021,2 hPa 0,0 mm 4,8 km/h (1 Bft) SO 135 ° 0 min 0 min 0,000 mm 0,0 UV-I 0 W/m² 7,7 °C 10,5 °C 9,7 km/h (2 Bft)
19.10.21 00:30:00 10,3 °C 10,3 °C 10,6 °C 83,00% 1020,9 hPa 0,0 mm 4,8 km/h (1 Bft) SO 135 ° 0 min 0 min 0,000 mm 0,0 UV-I 0 W/m² 7,5 °C 10,3 °C 12,9 km/h (3 Bft)
19.10.21 00:45:00 9,8 °C 9,8 °C 10,3 °C 84,00% 1020,6 hPa 0,0 mm 6,4 km/h (2 Bft) SO 135 ° 0 min 0 min 0,000 mm 0,0 UV-I 0 W/m² 7,2 °C 9,1 °C 12,9 km/h (3 Bft)
19.10.21 01:00:00 9,5 °C 9,5 °C 9,8 °C 85,00% 1020,7 hPa 0,0 mm 3,2 km/h (1 Bft) O-SO 112 ° 0 min 0 min 0,025 mm 0,0 UV-I 0 W/m² 7,1 °C 9,5 °C 8,0 km/h (2 Bft)
19.10.21 01:15:00 9,1 °C 9,1 °C 9,5 °C 86,00% 1020,7 hPa 0,0 mm 3,2 km/h (1 Bft) SO 135 ° 0 min 0 min 0,000 mm 0,0 UV-I 0 W/m² 6,9 °C 9,1 °C 9,7 km/h (2 Bft)
19.10.21 01:30:00 8,9 °C 8,8 °C 9,2 °C 87,00% 1020,7 hPa 0,0 mm 3,2 km/h (1 Bft) SO 135 ° 0 min 0 min 0,000 mm 0,0 UV-I 0 W/m² 6,9 °C 8,8 °C 6,4 km/h (2 Bft)
19.10.21 01:45:00 9,1 °C 8,8 °C 9,2 °C 87,00% 1020,6 hPa 0,0 mm 1,6 km/h (1 Bft) O-SO 112 ° 0 min 0 min 0,000 mm 0,0 UV-I 0 W/m² 7,1 °C 8,8 °C 8,0 km/h (2 Bft)
19.10.21 02:00:00 8,9 °C 8,9 °C 9,1 °C 87,00% 1020,5 hPa 0,0 mm 1,6 km/h (1 Bft) SO 135 ° 0 min 0 min 0,000 mm 0,0 UV-I 0 W/m² 6,9 °C 8,9 °C 4,8 km/h (1 Bft)
19.10.21 02:15:00 8,3 °C 8,3 °C 8,9 °C 89,00% 1020,6 hPa 0,0 mm 1,6 km/h (1 Bft) SO 135 ° 0 min 0 min 0,000 mm 0,0 UV-I 0 W/m² 6,6 °C 8,3 °C 6,4 km/h (2 Bft)
19.10.21 02:30:00 8,7 °C 8,2 °C 8,7 °C 89,00% 1020,6 hPa 0,0 mm 3,2 km/h (1 Bft) S-SW 202 ° 0 min 0 min 0,000 mm 0,0 UV-I 0 W/m² 7,0 °C 8,2 °C 8,0 km/h (2 Bft)
19.10.21 02:45:00 8,9 °C 8,7 °C 9,0 °C 87,00% 1020,5 hPa 0,0 mm 4,8 km/h (1 Bft) S-SO 157 ° 0 min 0 min 0,000 mm 0,0 UV-I 0 W/m² 6,9 °C 8,3 °C 9,7 km/h (2 Bft)
19.10.21 03:00:00 8,8 °C 8,8 °C 8,9 °C 87,00% 1020,2 hPa 0,0 mm 6,4 km/h (2 Bft) SO 135 ° 0 min 0 min 0,000 mm 0,0 UV-I 0 W/m² 6,8 °C 8,0 °C 12,9 km/h (3 Bft)
19.10.21 03:15:00 9,0 °C 8,8 °C 9,0 °C 87,00% 1020,1 hPa 0,0 mm 6,4 km/h (2 Bft) SO 135 ° 0 min 0 min 0,000 mm 0,0 UV-I 0 W/m² 7,0 °C 8,0 °C 12,9 km/h (3 Bft)
19.10.21 03:30:00 9,2 °C 9,0 °C 9,3 °C 87,00% 1019,9 hPa 0,0 mm 6,4 km/h (2 Bft) S-SO 157 ° 0 min 0 min 0,000 mm 0,0 UV-I 0 W/m² 7,2 °C 8,2 °C 16,1 km/h (3 Bft)
19.10.21 03:45:00 9,0 °C 9,0 °C 9,2 °C 88,00% 1020,0 hPa 0,0 mm 6,4 km/h (2 Bft) SO 135 ° 0 min 0 min 0,000 mm 0,0 UV-I 0 W/m² 7,1 °C 8,2 °C 11,3 km/h (2 Bft)
19.10.21 04:00:00 8,8 °C 8,8 °C 9,0 °C 88,00% 1019,8 hPa 0,0 mm 4,8 km/h (1 Bft) O-SO 112 ° 0 min 0 min 0,025 mm 0,0 UV-I 0 W/m² 6,9 °C 8,5 °C 8,0 km/h (2 Bft)
19.10.21 04:15:00 8,7 °C 8,7 °C 8,8 °C 89,00% 1019,6 hPa 0,0 mm 3,2 km/h (1 Bft) SO 135 ° 0 min 0 min 0,000 mm 0,0 UV-I 0 W/m² 7,0 °C 8,7 °C 8,0 km/h (2 Bft)
19.10.21 04:30:00 8,6 °C 8,6 °C 8,7 °C 89,00% 1019,3 hPa 0,0 mm 6,4 km/h (2 Bft) SO 135 ° 0 min 0 min 0,000 mm 0,0 UV-I 0 W/m² 6,9 °C 7,8 °C 12,9 km/h (3 Bft)
19.10.21 04:45:00 8,6 °C 8,6 °C 8,6 °C 89,00% 1019,3 hPa 0,0 mm 3,2 km/h (1 Bft) SO 135 ° 0 min 0 min 0,000 mm 0,0 UV-I 0 W/m² 6,9 °C 8,6 °C 8,0 km/h (2 Bft)
19.10.21 05:00:00 8,8 °C 8,6 °C 8,8 °C 89,00% 1019,0 hPa 0,0 mm 4,8 km/h (1 Bft) SO 135 ° 0 min 0 min 0,000 mm 0,0 UV-I 0 W/m² 7,1 °C 8,2 °C 12,9 km/h (3 Bft)
19.10.21 05:15:00 8,8 °C 8,8 °C 8,9 °C 89,00% 1018,9 hPa 0,0 mm 4,8 km/h (1 Bft) SO 135 ° 0 min 0 min 0,000 mm 0,0 UV-I 0 W/m² 7,1 °C 8,5 °C 14,5 km/h (3 Bft)
19.10.21 05:30:00 8,9 °C 8,8 °C 8,9 °C 89,00% 1018,9 hPa 0,0 mm 4,8 km/h (1 Bft) SO 135 ° 0 min 0 min 0,000 mm 0,0 UV-I 0 W/m² 7,2 °C 8,5 °C 11,3 km/h (2 Bft)
19.10.21 05:45:00 9,0 °C 8,8 °C 9,1 °C 89,00% 1018,8 hPa 0,0 mm 6,4 km/h (2 Bft) S-SO 157 ° 0 min 0 min 0,000 mm 0,0 UV-I 0 W/m² 7,3 °C 8,0 °C 12,9 km/h (3 Bft)
19.10.21 06:00:00 9,1 °C 9,0 °C 9,1 °C 89,00% 1018,8 hPa 0,0 mm 4,8 km/h (1 Bft) SO 135 ° 0 min 0 min 0,000 mm 0,0 UV-I 0 W/m² 7,4 °C 8,7 °C 9,7 km/h (2 Bft)
19.10.21 06:15:00 9,2 °C 9,1 °C 9,2 °C 89,00% 1018,8 hPa 0,0 mm 3,2 km/h (1 Bft) SO 135 ° 0 min 0 min 0,000 mm 0,0 UV-I 0 W/m² 7,5 °C 9,1 °C 8,0 km/h (2 Bft)
19.10.21 06:30:00 9,4 °C 9,1 °C 9,4 °C 88,00% 1018,7 hPa 0,0 mm 4,8 km/h (1 Bft) SO 135 ° 0 min 0 min 0,000 mm 0,0 UV-I 0 W/m² 7,5 °C 8,8 °C 9,7 km/h (2 Bft)
19.10.21 06:45:00 9,4 °C 9,3 °C 9,4 °C 88,00% 1018,3 hPa 0,0 mm 4,8 km/h (1 Bft) SO 135 ° 0 min 0 min 0,000 mm 0,0 UV-I 0 W/m² 7,5 °C 9,0 °C 12,9 km/h (3 Bft)
19.10.21 07:00:00 9,4 °C 9,3 °C 9,5 °C 88,00% 1018,2 hPa 0,0 mm 6,4 km/h (2 Bft) S-SO 157 ° 0 min 0 min 0,000 mm 0,0 UV-I 0 W/m² 7,5 °C 8,6 °C 16,1 km/h (3 Bft)
19.10.21 07:15:00 9,4 °C 9,4 °C 9,4 °C 89,00% 1018,2 hPa 0,0 mm 3,2 km/h (1 Bft) SO 135 ° 0 min 0 min 0,000 mm 0,0 UV-I 0 W/m² 7,7 °C 9,4 °C 11,3 km/h (2 Bft)
19.10.21 07:30:00 9,4 °C 9,4 °C 9,5 °C 89,00% 1018,4 hPa 0,0 mm 3,2 km/h (1 Bft) S-SO 157 ° 0 min 0 min 0,000 mm 0,0 UV-I 0 W/m² 7,7 °C 9,4 °C 11,3 km/h (2 Bft)
19.10.21 07:45:00 9,4 °C 9,4 °C 9,6 °C 89,00% 1018,4 hPa 0,0 mm 4,8 km/h (1 Bft) SO 135 ° 0 min 0 min 0,000 mm 0,0 UV-I 0 W/m² 7,7 °C 9,1 °C 14,5 km/h (3 Bft)
19.10.21 08:00:00 9,5 °C 9,4 °C 9,5 °C 89,00% 1018,3 hPa 0,0 mm 4,8 km/h (1 Bft) S-SO 157 ° 15 min 0 min 0,000 mm 0,0 UV-I 0 W/m² 7,8 °C 9,1 °C 14,5 km/h (3 Bft)
19.10.21 08:15:00 9,6 °C 9,5 °C 9,6 °C 88,00% 1018,2 hPa 0,0 mm 6,4 km/h (2 Bft) S-SO 157 ° 15 min 0 min 0,000 mm 0,0 UV-I 1 W/m² 7,7 °C 8,8 °C 14,5 km/h (3 Bft)
19.10.21 08:30:00 9,7 °C 9,6 °C 9,7 °C 88,00% 1018,1 hPa 0,0 mm 4,8 km/h (1 Bft) S-SO 157 ° 15 min 0 min 0,000 mm 0,0 UV-I 14 W/m² 7,8 °C 9,4 °C 14,5 km/h (3 Bft)
19.10.21 08:45:00 9,7 °C 9,7 °C 9,7 °C 88,00% 1018,0 hPa 0,0 mm 6,4 km/h (2 Bft) S-SO 157 ° 15 min 0 min 0,000 mm 0,0 UV-I 18 W/m² 7,8 °C 9,0 °C 16,1 km/h (3 Bft)
19.10.21 09:00:00 9,8 °C 9,7 °C 9,8 °C 88,00% 1017,9 hPa 0,0 mm 6,4 km/h (2 Bft) S-SO 157 ° 15 min 0 min 0,025 mm 0,0 UV-I 32 W/m² 7,9 °C 9,0 °C 12,9 km/h (3 Bft)
19.10.21 09:15:00 10,0 °C 9,8 °C 10,1 °C 88,00% 1017,9 hPa 0,0 mm 4,8 km/h (1 Bft) S-SO 157 ° 15 min 0 min 0,000 mm 0,0 UV-I 60 W/m² 8,1 °C 9,6 °C 11,3 km/h (2 Bft)
19.10.21 09:30:00 10,2 °C 10,0 °C 10,2 °C 88,00% 1018,1 hPa 0,0 mm 6,4 km/h (2 Bft) S-SO 157 ° 15 min 0 min 0,000 mm 0,0 UV-I 45 W/m² 8,3 °C 9,4 °C 16,1 km/h (3 Bft)
19.10.21 09:45:00 10,4 °C 10,2 °C 10,4 °C 87,00% 1017,9 hPa 0,0 mm 6,4 km/h (2 Bft) S-SO 157 ° 15 min 0 min 0,000 mm 0,0 UV-I 57 W/m² 8,3 °C 10,2 °C 17,7 km/h (3 Bft)
19.10.21 10:00:00 10,9 °C 10,4 °C 10,9 °C 87,00% 1017,7 hPa 0,0 mm 6,4 km/h (2 Bft) S-SO 157 ° 15 min 0 min 0,051 mm 0,4 UV-I 95 W/m² 8,8 °C 10,4 °C 16,1 km/h (3 Bft)
19.10.21 10:15:00 10,9 °C 10,8 °C 10,9 °C 86,00% 1017,9 hPa 0,0 mm 6,4 km/h (2 Bft) S-SO 157 ° 15 min 0 min 0,000 mm 0,3 UV-I 90 W/m² 8,7 °C 10,8 °C 16,1 km/h (3 Bft)
19.10.21 10:30:00 11,3 °C 10,9 °C 11,3 °C 86,00% 1017,7 hPa 0,0 mm 4,8 km/h (1 Bft) SO 135 ° 15 min 0 min 0,000 mm 0,6 UV-I 108 W/m² 9,0 °C 10,9 °C 14,5 km/h (3 Bft)
19.10.21 10:45:00 11,7 °C 11,3 °C 11,7 °C 85,00% 1017,6 hPa 0,0 mm 8,0 km/h (2 Bft) S-SO 157 ° 15 min 0 min 0,000 mm 0,8 UV-I 142 W/m² 9,3 °C 11,3 °C 20,9 km/h (4 Bft)
19.10.21 11:00:00 11,8 °C 11,6 °C 11,8 °C 85,00% 1017,6 hPa 0,0 mm 8,0 km/h (2 Bft) S-SO 157 ° 15 min 0 min 0,076 mm 0,8 UV-I 144 W/m² 9,4 °C 11,6 °C 19,3 km/h (3 Bft)
19.10.21 11:15:00 12,1 °C 11,8 °C 12,1 °C 85,00% 1017,2 hPa 0,0 mm 11,3 km/h (2 Bft) S 180 ° 15 min 0 min 0,000 mm 0,9 UV-I 158 W/m² 9,7 °C 11,8 °C 22,5 km/h (4 Bft)
19.10.21 11:30:00 12,3 °C 12,1 °C 12,3 °C 85,00% 1017,6 hPa 0,0 mm 8,0 km/h (2 Bft) S-SO 157 ° 15 min 0 min 0,000 mm 0,9 UV-I 134 W/m² 9,9 °C 12,1 °C 20,9 km/h (4 Bft)
19.10.21 11:45:00 12,7 °C 12,3 °C 12,7 °C 85,00% 1017,5 hPa 0,0 mm 6,4 km/h (2 Bft) S-SO 157 ° 15 min 0 min 0,000 mm 0,9 UV-I 120 W/m² 10,2 °C 12,3 °C 12,9 km/h (3 Bft)
19.10.21 12:00:00 12,7 °C 12,7 °C 12,9 °C 85,00% 1017,6 hPa 0,0 mm 8,0 km/h (2 Bft) S-SO 157 ° 15 min 0 min 0,076 mm 0,8 UV-I 117 W/m² 10,2 °C 12,7 °C 19,3 km/h (3 Bft)
19.10.21 12:15:00 12,7 °C 12,6 °C 12,8 °C 85,00% 1017,5 hPa 0,0 mm 6,4 km/h (2 Bft) S-SO 157 ° 15 min 0 min 0,000 mm 0,5 UV-I 76 W/m² 10,2 °C 12,6 °C 14,5 km/h (3 Bft)
19.10.21 12:30:00 12,8 °C 12,7 °C 12,8 °C 85,00% 1017,0 hPa 0,0 mm 6,4 km/h (2 Bft) S-SO 157 ° 15 min 0 min 0,000 mm 0,5 UV-I 83 W/m² 10,3 °C 12,7 °C 17,7 km/h (3 Bft)
19.10.21 12:45:00 13,0 °C 12,8 °C 13,1 °C 84,00% 1016,8 hPa 0,0 mm 8,0 km/h (2 Bft) S-SO 157 ° 15 min 0 min 0,000 mm 0,7 UV-I 104 W/m² 10,4 °C 12,8 °C 22,5 km/h (4 Bft)
19.10.21 13:00:00 13,3 °C 13,0 °C 13,4 °C 83,00% 1016,6 hPa 0,0 mm 9,7 km/h (2 Bft) S 180 ° 15 min 0 min 0,076 mm 1,0 UV-I 143 W/m² 10,5 °C 13,0 °C 22,5 km/h (4 Bft)
19.10.21 13:15:00 13,4 °C 13,2 °C 13,4 °C 84,00% 1016,2 hPa 0,0 mm 9,7 km/h (2 Bft) S 180 ° 15 min 0 min 0,000 mm 1,0 UV-I 159 W/m² 10,8 °C 13,2 °C 22,5 km/h (4 Bft)
19.10.21 13:30:00 13,4 °C 13,3 °C 13,4 °C 84,00% 1016,1 hPa 0,0 mm 9,7 km/h (2 Bft) S-SO 157 ° 15 min 0 min 0,000 mm 1,0 UV-I 158 W/m² 10,8 °C 13,3 °C 22,5 km/h (4 Bft)
19.10.21 13:45:00 13,4 °C 13,3 °C 13,4 °C 84,00% 1016,0 hPa 0,0 mm 9,7 km/h (2 Bft) S 180 ° 15 min 0 min 0,000 mm 0,8 UV-I 119 W/m² 10,8 °C 13,3 °C 20,9 km/h (4 Bft)
19.10.21 14:00:00 13,4 °C 13,3 °C 13,4 °C 84,00% 1015,8 hPa 0,0 mm 11,3 km/h (2 Bft) S 180 ° 15 min 0 min 0,076 mm 0,7 UV-I 114 W/m² 10,8 °C 13,3 °C 22,5 km/h (4 Bft)
19.10.21 14:15:00 13,5 °C 13,3 °C 13,5 °C 84,00% 1015,3 hPa 0,0 mm 9,7 km/h (2 Bft) S 180 ° 15 min 0 min 0,000 mm 0,8 UV-I 116 W/m² 10,8 °C 13,3 °C 19,3 km/h (3 Bft)
19.10.21 14:30:00 13,6 °C 13,5 °C 13,6 °C 84,00% 1015,3 hPa 0,0 mm 8,0 km/h (2 Bft) S 180 ° 15 min 0 min 0,000 mm 0,8 UV-I 127 W/m² 10,9 °C 13,5 °C 19,3 km/h (3 Bft)
19.10.21 14:45:00 13,7 °C 13,6 °C 13,7 °C 84,00% 1015,2 hPa 0,0 mm 9,7 km/h (2 Bft) S 180 ° 15 min 0 min 0,000 mm 0,9 UV-I 150 W/m² 11,0 °C 13,6 °C 22,5 km/h (4 Bft)
19.10.21 15:00:00 13,9 °C 13,7 °C 13,9 °C 84,00% 1015,1 hPa 0,0 mm 9,7 km/h (2 Bft) S-SO 157 ° 15 min 0 min 0,076 mm 0,8 UV-I 132 W/m² 11,2 °C 13,7 °C 22,5 km/h (4 Bft)
19.10.21 15:15:00 14,0 °C 13,9 °C 14,0 °C 85,00% 1015,1 hPa 0,0 mm 8,0 km/h (2 Bft) S-SO 157 ° 15 min 0 min 0,000 mm 0,6 UV-I 112 W/m² 11,5 °C 13,9 °C 19,3 km/h (3 Bft)
19.10.21 15:30:00 14,2 °C 14,0 °C 14,2 °C 85,00% 1015,2 hPa 0,0 mm 8,0 km/h (2 Bft) S-SO 157 ° 15 min 0 min 0,000 mm 0,4 UV-I 82 W/m² 11,7 °C 14,0 °C 19,3 km/h (3 Bft)
19.10.21 15:45:00 14,5 °C 14,2 °C 14,5 °C 85,00% 1014,8 hPa 0,0 mm 8,0 km/h (2 Bft) S-SO 157 ° 15 min 0 min 0,000 mm 0,3 UV-I 83 W/m² 12,0 °C 14,2 °C 17,7 km/h (3 Bft)
19.10.21 16:00:00 14,6 °C 14,4 °C 14,7 °C 84,00% 1014,6 hPa 0,0 mm 8,0 km/h (2 Bft) S-SO 157 ° 15 min 0 min 0,076 mm 0,6 UV-I 107 W/m² 11,9 °C 14,4 °C 19,3 km/h (3 Bft)
19.10.21 16:15:00 14,7 °C 14,6 °C 14,7 °C 84,00% 1014,5 hPa 0,0 mm 8,0 km/h (2 Bft) S 180 ° 15 min 0 min 0,000 mm 0,1 UV-I 76 W/m² 12,0 °C 14,6 °C 16,1 km/h (3 Bft)
19.10.21 16:30:00 14,7 °C 14,7 °C 14,7 °C 84,00% 1014,4 hPa 0,0 mm 8,0 km/h (2 Bft) S-SO 157 ° 15 min 0 min 0,000 mm 0,0 UV-I 43 W/m² 12,0 °C 14,7 °C 22,5 km/h (4 Bft)
19.10.21 16:45:00 14,6 °C 14,6 °C 14,7 °C 84,00% 1014,4 hPa 0,0 mm 6,4 km/h (2 Bft) S-SO 157 ° 15 min 0 min 0,000 mm 0,0 UV-I 36 W/m² 11,9 °C 14,6 °C 14,5 km/h (3 Bft)
19.10.21 17:00:00 14,6 °C 14,6 °C 14,6 °C 84,00% 1014,3 hPa 0,0 mm 8,0 km/h (2 Bft) S-SO 157 ° 15 min 0 min 0,051 mm 0,0 UV-I 22 W/m² 11,9 °C 14,6 °C 19,3 km/h (3 Bft)
19.10.21 17:15:00 14,5 °C 14,5 °C 14,6 °C 85,00% 1014,1 hPa 0,0 mm 6,4 km/h (2 Bft) S-SO 157 ° 15 min 0 min 0,000 mm 0,0 UV-I 20 W/m² 12,0 °C 14,5 °C 17,7 km/h (3 Bft)
19.10.21 17:30:00 14,4 °C 14,4 °C 14,5 °C 85,00% 1013,9 hPa 0,0 mm 8,0 km/h (2 Bft) S-SO 157 ° 15 min 0 min 0,000 mm 0,0 UV-I 13 W/m² 11,9 °C 14,4 °C 17,7 km/h (3 Bft)
19.10.21 17:45:00 14,4 °C 14,3 °C 14,4 °C 85,00% 1013,8 hPa 0,0 mm 8,0 km/h (2 Bft) S-SO 157 ° 15 min 0 min 0,000 mm 0,0 UV-I 9 W/m² 11,9 °C 14,3 °C 20,9 km/h (4 Bft)
19.10.21 18:00:00 14,3 °C 14,3 °C 14,4 °C 85,00% 1013,3 hPa 0,0 mm 8,0 km/h (2 Bft) S-SW 202 ° 0 min 0 min 0,025 mm 0,0 UV-I 1 W/m² 11,8 °C 14,3 °C 19,3 km/h (3 Bft)
19.10.21 18:15:00 14,4 °C 14,3 °C 14,4 °C 85,00% 1013,3 hPa 0,0 mm 9,7 km/h (2 Bft) S-SW 202 ° 0 min 0 min 0,000 mm 0,0 UV-I 0 W/m² 11,9 °C 14,3 °C 24,1 km/h (4 Bft)
19.10.21 18:30:00 14,3 °C 14,3 °C 14,4 °C 85,00% 1013,1 hPa 0,0 mm 8,0 km/h (2 Bft) S 180 ° 0 min 0 min 0,000 mm 0,0 UV-I 0 W/m² 11,8 °C 14,3 °C 19,3 km/h (3 Bft)
19.10.21 18:45:00 14,3 °C 14,3 °C 14,3 °C 86,00% 1013,3 hPa 0,0 mm 9,7 km/h (2 Bft) S-SW 202 ° 0 min 0 min 0,000 mm 0,0 UV-I 0 W/m² 12,0 °C 14,3 °C 27,4 km/h (5 Bft)
19.10.21 19:00:00 14,1 °C 14,0 °C 14,3 °C 87,00% 1013,2 hPa 0,0 mm 8,0 km/h (2 Bft) S-SW 202 ° 0 min 0 min 0,025 mm 0,0 UV-I 0 W/m² 12,0 °C 14,0 °C 22,5 km/h (4 Bft)
19.10.21 19:15:00 14,0 °C 13,9 °C 14,1 °C 88,00% 1012,9 hPa 0,0 mm 8,0 km/h (2 Bft) S 180 ° 0 min 0 min 0,000 mm 0,0 UV-I 0 W/m² 12,0 °C 13,9 °C 19,3 km/h (3 Bft)
19.10.21 19:30:00 13,8 °C 13,8 °C 14,0 °C 89,00% 1012,8 hPa 0,0 mm 8,0 km/h (2 Bft) S-SW 202 ° 0 min 0 min 0,000 mm 0,0 UV-I 0 W/m² 12,0 °C 13,8 °C 24,1 km/h (4 Bft)
19.10.21 19:45:00 13,7 °C 13,7 °C 13,9 °C 89,00% 1012,6 hPa 0,0 mm 8,0 km/h (2 Bft) S 180 ° 0 min 0 min 0,000 mm 0,0 UV-I 0 W/m² 11,9 °C 13,7 °C 19,3 km/h (3 Bft)
19.10.21 20:00:00 13,8 °C 13,7 °C 13,8 °C 90,00% 1012,5 hPa 0,0 mm 8,0 km/h (2 Bft) S 180 ° 0 min 0 min 0,025 mm 0,0 UV-I 0 W/m² 12,2 °C 13,7 °C 22,5 km/h (4 Bft)
19.10.21 20:15:00 13,9 °C 13,8 °C 13,9 °C 90,00% 1012,3 hPa 0,0 mm 11,3 km/h (2 Bft) S-SW 202 ° 0 min 0 min 0,000 mm 0,0 UV-I 0 W/m² 12,3 °C 13,8 °C 29,0 km/h (5 Bft)
19.10.21 20:30:00 13,9 °C 13,8 °C 13,9 °C 90,00% 1012,1 hPa 0,0 mm 9,7 km/h (2 Bft) S-SW 202 ° 0 min 0 min 0,000 mm 0,0 UV-I 0 W/m² 12,3 °C 13,8 °C 25,7 km/h (4 Bft)
19.10.21 20:45:00 13,7 °C 13,7 °C 13,9 °C 91,00% 1011,9 hPa 0,2 mm 9,7 km/h (2 Bft) S 180 ° 0 min 15 min 0,000 mm 0,0 UV-I 0 W/m² 12,3 °C 13,7 °C 25,7 km/h (4 Bft)
19.10.21 21:00:00 13,7 °C 13,7 °C 13,7 °C 92,00% 1011,9 hPa 0,2 mm 9,7 km/h (2 Bft) S 180 ° 0 min 15 min 0,025 mm 0,0 UV-I 0 W/m² 12,4 °C 13,7 °C 22,5 km/h (4 Bft)
19.10.21 21:15:00 13,7 °C 13,7 °C 13,7 °C 93,00% 1011,7 hPa 0,2 mm 9,7 km/h (2 Bft) S 180 ° 0 min 15 min 0,000 mm 0,0 UV-I 0 W/m² 12,6 °C 13,7 °C 24,1 km/h (4 Bft)
19.10.21 21:30:00 13,8 °C 13,7 °C 13,8 °C 93,00% 1011,6 hPa 0,0 mm 9,7 km/h (2 Bft) S 180 ° 0 min 15 min 0,000 mm 0,0 UV-I 0 W/m² 12,7 °C 13,7 °C 24,1 km/h (4 Bft)
19.10.21 21:45:00 14,0 °C 13,8 °C 14,0 °C 93,00% 1011,4 hPa 0,0 mm 9,7 km/h (2 Bft) S 180 ° 0 min 0 min 0,000 mm 0,0 UV-I 0 W/m² 12,9 °C 13,8 °C 27,4 km/h (5 Bft)
19.10.21 22:00:00 14,3 °C 14,0 °C 14,3 °C 93,00% 1011,3 hPa 0,0 mm 8,0 km/h (2 Bft) S 180 ° 0 min 0 min 0,000 mm 0,0 UV-I 0 W/m² 13,2 °C 14,0 °C 25,7 km/h (4 Bft)
19.10.21 22:15:00 14,6 °C 14,3 °C 14,6 °C 92,00% 1011,3 hPa 0,0 mm 6,4 km/h (2 Bft) S 180 ° 0 min 0 min 0,000 mm 0,0 UV-I 0 W/m² 13,3 °C 14,3 °C 24,1 km/h (4 Bft)
19.10.21 22:30:00 14,8 °C 14,6 °C 14,8 °C 92,00% 1011,2 hPa 0,0 mm 8,0 km/h (2 Bft) S 180 ° 0 min 0 min 0,000 mm 0,0 UV-I 0 W/m² 13,5 °C 14,6 °C 22,5 km/h (4 Bft)
19.10.21 22:45:00 14,9 °C 14,8 °C 14,9 °C 92,00% 1011,1 hPa 0,0 mm 8,0 km/h (2 Bft) S 180 ° 0 min 0 min 0,000 mm 0,0 UV-I 0 W/m² 13,6 °C 14,8 °C 25,7 km/h (4 Bft)
19.10.21 23:00:00 15,2 °C 14,9 °C 15,2 °C 91,00% 1011,0 hPa 0,0 mm 9,7 km/h (2 Bft) S 180 ° 0 min 0 min 0,000 mm 0,0 UV-I 0 W/m² 13,7 °C 14,9 °C 27,4 km/h (5 Bft)
19.10.21 23:15:00 15,2 °C 15,1 °C 15,2 °C 91,00% 1011,0 hPa 0,0 mm 8,0 km/h (2 Bft) S 180 ° 0 min 0 min 0,000 mm 0,0 UV-I 0 W/m² 13,7 °C 15,1 °C 22,5 km/h (4 Bft)
19.10.21 23:30:00 15,4 °C 15,2 °C 15,4 °C 91,00% 1010,7 hPa 0,0 mm 9,7 km/h (2 Bft) S 180 ° 0 min 0 min 0,000 mm 0,0 UV-I 0 W/m² 13,9 °C 15,2 °C 27,4 km/h (5 Bft)
_ Min-Zeit 02:30:00 02:30:00 04:45:00 00:15:00 23:30:00 - 02:15:00 - - - - - - - 02:15:00 04:30:00 02:00:00
Minimum _ 8,2 °C 8,2 °C 8,6 °C 82,00% 1010,7 hPa - 1,6 km/h (1 Bft) - - - - - - - 6,6 °C 7,8 °C 4,8 km/h (1 Bft)
_ Max-Zeit 23:30:00 23:30:00 23:30:00 22:00:00 00:15:00 21:00:00 20:15:00 - - 17:45:00 21:30:00 16:00:00 13:30:00 13:15:00 23:30:00 23:30:00 20:15:00
Maximum _ 15,4 °C 15,2 °C 15,4 °C 93,00% 1021,2 hPa 0,2 mm 11,3 km/h - - 15 min 15 min 0,076 mm 1,0 UV-I 159 W/m² 13,9 °C 15,2 °C 29,0 km/h
S-SW (2 Bft) SW (5 Bft)
Durchschnitt _ 11,9 °C 11,7 °C 11,9 °C 87,00% 1016,4 hPa #0,7 mm 6,9 km/h (2 Bft) S-SO - #10:00 h #1:00 h #0,758 mm 0,7 UV-I 36 W/m² 9,8 °C 11,6 °C 17,2 km/h (3 Bft)

                                                                                                                                                                           _________________________________________________________________________________________________________________________________________________________________________

 Anomalie Daten

ausgewähltes Produkt zur Leistung: Zeitreihen und Trends
 
ausgewähltes Produkt zur Leistung:

 

 

ausgewähltes Produkt zur Leistung: Zeitreihen und Trends

Absolut Daten

ausgewähltes Produkt zur Leistung: Zeitreihen und Trends
ausgewähltes Produkt zur Leistung: Zeitreihen und Trends

 

ausgewähltes Produkt zur Leistung: Zeitreihen und Trends

 

2009 - 2021

Unwetterwarnungen

Unwetterwarnungen

 

  Radarbild           

aktueller Radarfilm Deutschland

Mecklenburg Vorpommern/

Brandenburg

aktuelles Wetter und aktuelle Temperatur Region Nordost

Waldbrandgefahr   

Deutschlandkarte mit dem Tageswert des Waldbrand-Gefahrenindex WBI, heute